Aeroporto :
LOGIN :

Iscrizione | Disclaimer

   EN    FR    IT 

 










Sommario :    VFR   VFR Marginale   IFR   IFR Intensivo   IFR Molto Intensivo
Visibilità : 
Base nubi : 
>= 8 km
>= 3000ft
5 / 8 km
1000 / 3000 ft
1500m / 5 km
500 / 1000 ft
800 / 1500m
200 / 500 ft
< 800m
< 200 ft
Simboli :   Temporali  Nebbia  Neve Forte  Precipitazioni Forti  Vento > 20 kt
SIGMETs :   Varie  Temporali  Ghiacco  Turbolenza  Onda orograficha  Ceneri Vulcaniche






- Altitudine del aeroporto : 397 ft
- Codice IATA : IAS


LRIA - Iasi

ULTIMO METAR :
  • 290930Z AUTO 31008KT 270V340 9999 NCD 16/M02 Q1007

METARs OBSOLETI :
  • 290900Z 30009KT 260V330 CAVOK 14/M01 Q1007
  • 290830Z 29010KT CAVOK 13/M02 Q1007
  • 290800Z 29009KT CAVOK 13/M01 Q1007
  • 290730Z 28008KT CAVOK 11/M01 Q1008
  • 290700Z 28009KT 250V320 CAVOK 10/M01 Q1008

TAF TAF LRIA
Valido dal 29 a 09 ore il 29 a 18 ore UTC


290800Z 2909/2918 33012KT CAVOK



MetMap, La meteo Aeronautica in un colpo d'occhio ! - Copyright ORBIFLY Dicembre 2007 - Disclaimer

ORBIFLY MET'MAP TEAM :

Programmazione e sviluppo : Alexandra Zaïnal
Concezione : Baudouin d'Aumeries
Aiuto per la programmazione : Marc-Olivier Méhu
Supporto tecnico e logistico : Manuel Goepfert
Aiuto per la traduzione : Arnaldo La Scala

Contatto : metmap@orbifly.com




FONTI E CREDITI :

   NOAA